Flag for Canada Weather past 2 weeks in Sidney, British Columbia, Canada

Now
45 °F

Light rain. Mostly cloudy.


Feels Like: 41 °F
Forecast: 43 / 47 °F
Wind: 6 mph from Northwest

Location: Victoria Int. Airportb. C.

Current Time: Feb 1, 2015 at 11:42:16 AM

Latest Report: Feb 1, 2015 at 11:00 AM


Visibility: 10 mi

Pressure: 30.00 "Hg

Humidity: 93%

Dew point: 43 °F

Location of SidneyLocation

Historic Weather in Sidney — Graph

°F

Sidney temperature yesterday

Maximum temperature yesterday: 45 °F (at 12:00 PM)
Minimum temperature yesterday: 37 °F (at 5:00 AM)
Average temperature yesterday: 41 °F

Past Weeks' High & Low Weather Summary

 TemperatureHumidityPressure
High59 °F (Jan 24, 4:00 PM)100% (Jan 17, 12:46 PM)30.47 "Hg (Jan 17, 12:46 PM)
Low32 °F (Jan 21, 4:00 AM)66% (Jan 30, 2:00 PM)29.47 "Hg (Jan 18, 1:00 AM)
Average44 °F93%30.20 "Hg
* Reported Jan 17 10:00 AM — Feb 1 10:00 AM, Sidney, Weather by CustomWeather, © 2014

Note: Actual official high and low records may vary slightly from our data, if they occured in-between our weather recording intervals... More about our weather records

Advertising

Sidney weather history for previous 24 hours

 ConditionsComfort  
Time TempWeatherWind HumidityBarometerVisibility
10:00 AM
Feb 1
43 °FMore clouds than sun.3 mph93%29.98 "Hg20 mi
9:00 AM43 °FCloudy.6 mph93%29.99 "Hg20 mi
8:00 AM41 °FMore clouds than sun.5 mph100%29.99 "Hg20 mi
7:00 AM41 °FMostly cloudy.No wind100%30.01 "Hg15 mi
6:00 AM43 °FMostly cloudy.5 mph93%30.03 "Hg15 mi
5:00 AM43 °FLight rain. Mostly cloudy.5 mph93%30.05 "Hg15 mi
4:00 AM43 °FLight rain. Overcast.5 mph93%30.07 "Hg15 mi
3:00 AM43 °FOvercast.7 mph93%30.08 "Hg15 mi
2:00 AM43 °FOvercast.7 mph93%30.09 "Hg15 mi
1:00 AM41 °FOvercast.2 mph100%30.10 "Hg12 mi
12:00 AM43 °FOvercast.3 mph93%30.12 "Hg10 mi
11:00 PM
Jan 31
43 °FMostly cloudy.5 mph93%30.14 "Hg12 mi
10:00 PM43 °FLight rain. Fog.6 mph100%30.15 "Hg5 mi
9:00 PM43 °FLight rain. Fog.5 mph100%30.16 "Hg5 mi
8:00 PM43 °FLight rain. Mostly cloudy.2 mph100%30.16 "Hg10 mi
7:00 PM43 °FFog.2 mph93%30.18 "Hg15 mi
6:00 PM45 °FPassing clouds.5 mph87%30.19 "Hg20 mi
5:00 PM45 °FMostly cloudy.5 mph87%30.19 "Hg20 mi
4:00 PM45 °FOvercast.3 mph87%30.20 "Hg20 mi
3:00 PM45 °FCloudy.2 mph87%30.19 "Hg30 mi
2:00 PM45 °FMostly cloudy.7 mph87%30.20 "Hg30 mi
1:00 PM45 °FMostly cloudy.3 mph87%30.22 "Hg20 mi
12:00 PM45 °FPartly sunny.5 mph93%30.24 "Hg10 mi
11:00 AM41 °FFog.6 mph100%30.26 "Hg2 mi
Weather by CustomWeather, © 2014

See weather overviewHow to use our weather pages